Terminal Aerodrome Forecast
Issued by NWS

Home | Current Version | Previous Version | Text Only | Print | Product List | Glossary On
Versions: 1 2 3 4 5 6 7 8 9 10 11 12 13 14 15 16 17 18 19 20 21 22 23 24 25 26 27
000
FTUS43 KDLH 281300 AAA
TAFHYR
TAF AMD
KHYR 281301Z 2813/2912 21003KT P6SM BKN002 OVC070
     FM281500 33009G16KT P6SM SCT060
     FM282200 33008KT P6SM VCSH BKN060=

USA.gov is the U.S. government's official web portal to all federal, state and local government web resources and services.